﻿測定場所 (Monitoring sites),日付 (Measurement date),時間 (Measurement time),線量率 最大値 (max) μGy/h,線量率 最小値 (min) μGy/h,線量率 平均値 (average) μGy/h,
調布 (Chofu),2018-09-30,23:01～24:00,0.0421,0.0317,0.0366,
調布 (Chofu),2018-09-30,22:01～23:00,0.0342,0.0258,0.0301,
調布 (Chofu),2018-09-30,21:01～22:00,0.0295,0.0256,0.0274,
調布 (Chofu),2018-09-30,20:01～21:00,0.0313,0.0273,0.0289,
調布 (Chofu),2018-09-30,19:01～20:00,0.0321,0.0265,0.0297,
調布 (Chofu),2018-09-30,18:01～19:00,0.0321,0.0278,0.0298,
調布 (Chofu),2018-09-30,17:01～18:00,0.0320,0.0268,0.0291,
調布 (Chofu),2018-09-30,16:01～17:00,0.0308,0.0269,0.0288,
調布 (Chofu),2018-09-30,15:01～16:00,0.0322,0.0269,0.0287,
調布 (Chofu),2018-09-30,14:01～15:00,0.0298,0.0260,0.0277,
調布 (Chofu),2018-09-30,13:01～14:00,0.0291,0.0245,0.0273,
調布 (Chofu),2018-09-30,12:01～13:00,0.0294,0.0252,0.0271,
調布 (Chofu),2018-09-30,11:01～12:00,0.0294,0.0259,0.0275,
調布 (Chofu),2018-09-30,10:01～11:00,0.0307,0.0261,0.0278,
調布 (Chofu),2018-09-30,09:01～10:00,0.0311,0.0264,0.0285,
調布 (Chofu),2018-09-30,08:01～09:00,0.0334,0.0290,0.0309,
調布 (Chofu),2018-09-30,07:01～08:00,0.0355,0.0303,0.0330,
調布 (Chofu),2018-09-30,06:01～07:00,0.0371,0.0331,0.0350,
調布 (Chofu),2018-09-30,05:01～06:00,0.0360,0.0313,0.0338,
調布 (Chofu),2018-09-30,04:01～05:00,0.0376,0.0328,0.0354,
調布 (Chofu),2018-09-30,03:01～04:00,0.0385,0.0315,0.0348,
調布 (Chofu),2018-09-30,02:01～03:00,0.0327,0.0285,0.0306,
調布 (Chofu),2018-09-30,01:01～02:00,0.0332,0.0287,0.0310,
調布 (Chofu),2018-09-30,00:01～01:00,0.0336,0.0297,0.0316,
調布 (Chofu),2018-09-29,23:01～24:00,0.0310,0.0261,0.0284,
調布 (Chofu),2018-09-29,22:01～23:00,0.0301,0.0255,0.0278,
調布 (Chofu),2018-09-29,21:01～22:00,0.0304,0.0266,0.0285,
調布 (Chofu),2018-09-29,20:01～21:00,0.0315,0.0276,0.0295,
調布 (Chofu),2018-09-29,19:01～20:00,0.0343,0.0298,0.0323,
調布 (Chofu),2018-09-29,18:01～19:00,0.0357,0.0305,0.0332,
調布 (Chofu),2018-09-29,17:01～18:00,0.0353,0.0310,0.0330,
調布 (Chofu),2018-09-29,16:01～17:00,0.0336,0.0295,0.0318,
調布 (Chofu),2018-09-29,15:01～16:00,0.0340,0.0301,0.0324,
調布 (Chofu),2018-09-29,14:01～15:00,0.0349,0.0301,0.0328,
調布 (Chofu),2018-09-29,13:01～14:00,0.0355,0.0307,0.0332,
調布 (Chofu),2018-09-29,12:01～13:00,0.0349,0.0315,0.0330,
調布 (Chofu),2018-09-29,11:01～12:00,0.0340,0.0295,0.0316,
調布 (Chofu),2018-09-29,10:01～11:00,0.0327,0.0289,0.0304,
調布 (Chofu),2018-09-29,09:01～10:00,0.0314,0.0280,0.0295,
調布 (Chofu),2018-09-29,08:01～09:00,0.0316,0.0281,0.0297,
調布 (Chofu),2018-09-29,07:01～08:00,0.0314,0.0266,0.0294,
調布 (Chofu),2018-09-29,06:01～07:00,0.0301,0.0276,0.0289,
調布 (Chofu),2018-09-29,05:01～06:00,0.0309,0.0277,0.0296,
調布 (Chofu),2018-09-29,04:01～05:00,0.0309,0.0276,0.0293,
調布 (Chofu),2018-09-29,03:01～04:00,0.0307,0.0267,0.0288,
調布 (Chofu),2018-09-29,02:01～03:00,0.0313,0.0265,0.0287,
調布 (Chofu),2018-09-29,01:01～02:00,0.0303,0.0266,0.0285,
調布 (Chofu),2018-09-29,00:01～01:00,0.0304,0.0263,0.0280,
調布 (Chofu),2018-09-28,23:01～24:00,0.0302,0.0258,0.0285,
調布 (Chofu),2018-09-28,22:01～23:00,0.0301,0.0259,0.0282,
調布 (Chofu),2018-09-28,21:01～22:00,0.0300,0.0260,0.0281,
調布 (Chofu),2018-09-28,20:01～21:00,0.0298,0.0253,0.0281,
調布 (Chofu),2018-09-28,19:01～20:00,0.0300,0.0264,0.0282,
調布 (Chofu),2018-09-28,18:01～19:00,0.0299,0.0264,0.0280,
調布 (Chofu),2018-09-28,17:01～18:00,0.0300,0.0263,0.0278,
調布 (Chofu),2018-09-28,16:01～17:00,0.0299,0.0261,0.0280,
調布 (Chofu),2018-09-28,15:01～16:00,0.0298,0.0261,0.0279,
調布 (Chofu),2018-09-28,14:01～15:00,0.0291,0.0259,0.0277,
調布 (Chofu),2018-09-28,13:01～14:00,0.0292,0.0261,0.0275,
調布 (Chofu),2018-09-28,12:01～13:00,0.0301,0.0258,0.0278,
調布 (Chofu),2018-09-28,11:01～12:00,0.0299,0.0259,0.0282,
調布 (Chofu),2018-09-28,10:01～11:00,0.0298,0.0253,0.0280,
調布 (Chofu),2018-09-28,09:01～10:00,0.0316,0.0273,0.0291,
調布 (Chofu),2018-09-28,08:01～09:00,0.0325,0.0276,0.0297,
調布 (Chofu),2018-09-28,07:01～08:00,0.0323,0.0274,0.0296,
調布 (Chofu),2018-09-28,06:01～07:00,0.0316,0.0277,0.0297,
調布 (Chofu),2018-09-28,05:01～06:00,0.0316,0.0278,0.0296,
調布 (Chofu),2018-09-28,04:01～05:00,0.0317,0.0274,0.0297,
調布 (Chofu),2018-09-28,03:01～04:00,0.0313,0.0277,0.0292,
調布 (Chofu),2018-09-28,02:01～03:00,0.0305,0.0275,0.0292,
調布 (Chofu),2018-09-28,01:01～02:00,0.0310,0.0268,0.0292,
調布 (Chofu),2018-09-28,00:01～01:00,0.0329,0.0271,0.0293,
調布 (Chofu),2018-09-27,23:01～24:00,0.0310,0.0269,0.0286,
調布 (Chofu),2018-09-27,22:01～23:00,0.0308,0.0269,0.0289,
調布 (Chofu),2018-09-27,21:01～22:00,0.0303,0.0264,0.0283,
調布 (Chofu),2018-09-27,20:01～21:00,0.0302,0.0264,0.0282,
調布 (Chofu),2018-09-27,19:01～20:00,0.0302,0.0261,0.0279,
調布 (Chofu),2018-09-27,18:01～19:00,0.0293,0.0257,0.0279,
調布 (Chofu),2018-09-27,17:01～18:00,0.0300,0.0258,0.0280,
調布 (Chofu),2018-09-27,16:01～17:00,0.0310,0.0262,0.0281,
調布 (Chofu),2018-09-27,15:01～16:00,0.0307,0.0270,0.0289,
調布 (Chofu),2018-09-27,14:01～15:00,0.0330,0.0287,0.0305,
調布 (Chofu),2018-09-27,13:01～14:00,0.0304,0.0266,0.0288,
調布 (Chofu),2018-09-27,12:01～13:00,0.0321,0.0284,0.0302,
調布 (Chofu),2018-09-27,11:01～12:00,0.0325,0.0287,0.0305,
調布 (Chofu),2018-09-27,10:01～11:00,0.0328,0.0273,0.0293,
調布 (Chofu),2018-09-27,09:01～10:00,0.0322,0.0284,0.0303,
調布 (Chofu),2018-09-27,08:01～09:00,0.0326,0.0283,0.0304,
調布 (Chofu),2018-09-27,07:01～08:00,0.0341,0.0289,0.0311,
調布 (Chofu),2018-09-27,06:01～07:00,0.0345,0.0300,0.0322,
調布 (Chofu),2018-09-27,05:01～06:00,0.0364,0.0296,0.0338,
調布 (Chofu),2018-09-27,04:01～05:00,0.0412,0.0344,0.0375,
調布 (Chofu),2018-09-27,03:01～04:00,0.0452,0.0365,0.0417,
調布 (Chofu),2018-09-27,02:01～03:00,0.0505,0.0428,0.0467,
調布 (Chofu),2018-09-27,01:01～02:00,0.0531,0.0430,0.0482,
調布 (Chofu),2018-09-27,00:01～01:00,0.0483,0.0390,0.0433,
調布 (Chofu),2018-09-26,23:01～24:00,0.0484,0.0396,0.0451,
調布 (Chofu),2018-09-26,22:01～23:00,0.0534,0.0450,0.0490,
調布 (Chofu),2018-09-26,21:01～22:00,0.0556,0.0387,0.0494,
調布 (Chofu),2018-09-26,20:01～21:00,0.0420,0.0357,0.0392,
調布 (Chofu),2018-09-26,19:01～20:00,0.0441,0.0360,0.0390,
調布 (Chofu),2018-09-26,18:01～19:00,0.0425,0.0348,0.0380,
調布 (Chofu),2018-09-26,17:01～18:00,0.0404,0.0352,0.0370,
調布 (Chofu),2018-09-26,16:01～17:00,0.0432,0.0350,0.0390,
調布 (Chofu),2018-09-26,15:01～16:00,0.0391,0.0275,0.0317,
調布 (Chofu),2018-09-26,14:01～15:00,0.0307,0.0258,0.0281,
調布 (Chofu),2018-09-26,13:01～14:00,0.0301,0.0264,0.0283,
調布 (Chofu),2018-09-26,12:01～13:00,0.0311,0.0268,0.0287,
調布 (Chofu),2018-09-26,11:01～12:00,0.0335,0.0288,0.0309,
調布 (Chofu),2018-09-26,10:01～11:00,0.0350,0.0292,0.0321,
調布 (Chofu),2018-09-26,09:01～10:00,0.0339,0.0299,0.0319,
調布 (Chofu),2018-09-26,08:01～09:00,0.0335,0.0296,0.0317,
調布 (Chofu),2018-09-26,07:01～08:00,0.0337,0.0290,0.0311,
調布 (Chofu),2018-09-26,06:01～07:00,0.0398,0.0291,0.0340,
調布 (Chofu),2018-09-26,05:01～06:00,0.0541,0.0367,0.0460,
調布 (Chofu),2018-09-26,04:01～05:00,0.0572,0.0373,0.0471,
調布 (Chofu),2018-09-26,03:01～04:00,0.0403,0.0306,0.0339,
調布 (Chofu),2018-09-26,02:01～03:00,0.0340,0.0299,0.0319,
調布 (Chofu),2018-09-26,01:01～02:00,0.0333,0.0259,0.0291,
調布 (Chofu),2018-09-26,00:01～01:00,0.0308,0.0260,0.0280,
調布 (Chofu),2018-09-25,23:01～24:00,0.0302,0.0261,0.0280,
調布 (Chofu),2018-09-25,22:01～23:00,0.0306,0.0267,0.0283,
調布 (Chofu),2018-09-25,21:01～22:00,0.0305,0.0268,0.0281,
調布 (Chofu),2018-09-25,20:01～21:00,0.0318,0.0269,0.0289,
調布 (Chofu),2018-09-25,19:01～20:00,0.0360,0.0289,0.0324,
調布 (Chofu),2018-09-25,18:01～19:00,0.0387,0.0339,0.0363,
調布 (Chofu),2018-09-25,17:01～18:00,0.0466,0.0353,0.0411,
調布 (Chofu),2018-09-25,16:01～17:00,0.0576,0.0441,0.0496,
調布 (Chofu),2018-09-25,15:01～16:00,0.0609,0.0535,0.0570,
調布 (Chofu),2018-09-25,14:01～15:00,0.0600,0.0503,0.0551,
調布 (Chofu),2018-09-25,13:01～14:00,0.0573,0.0421,0.0509,
調布 (Chofu),2018-09-25,12:01～13:00,0.0412,0.0307,0.0338,
調布 (Chofu),2018-09-25,11:01～12:00,0.0349,0.0299,0.0328,
調布 (Chofu),2018-09-25,10:01～11:00,0.0332,0.0267,0.0294,
調布 (Chofu),2018-09-25,09:01～10:00,0.0309,0.0256,0.0281,
調布 (Chofu),2018-09-25,08:01～09:00,0.0313,0.0261,0.0283,
調布 (Chofu),2018-09-25,07:01～08:00,0.0297,0.0261,0.0281,
調布 (Chofu),2018-09-25,06:01～07:00,0.0303,0.0263,0.0280,
調布 (Chofu),2018-09-25,05:01～06:00,0.0295,0.0260,0.0280,
調布 (Chofu),2018-09-25,04:01～05:00,0.0296,0.0255,0.0280,
調布 (Chofu),2018-09-25,03:01～04:00,0.0301,0.0265,0.0281,
調布 (Chofu),2018-09-25,02:01～03:00,0.0302,0.0262,0.0281,
調布 (Chofu),2018-09-25,01:01～02:00,0.0305,0.0264,0.0281,
調布 (Chofu),2018-09-25,00:01～01:00,0.0298,0.0266,0.0280,
調布 (Chofu),2018-09-24,23:01～24:00,0.0294,0.0256,0.0277,
調布 (Chofu),2018-09-24,22:01～23:00,0.0305,0.0263,0.0279,
調布 (Chofu),2018-09-24,21:01～22:00,0.0296,0.0265,0.0280,
調布 (Chofu),2018-09-24,20:01～21:00,0.0313,0.0262,0.0285,
調布 (Chofu),2018-09-24,19:01～20:00,0.0318,0.0275,0.0297,
調布 (Chofu),2018-09-24,18:01～19:00,0.0327,0.0267,0.0287,
調布 (Chofu),2018-09-24,17:01～18:00,0.0302,0.0265,0.0283,
調布 (Chofu),2018-09-24,16:01～17:00,0.0302,0.0266,0.0282,
調布 (Chofu),2018-09-24,15:01～16:00,0.0305,0.0262,0.0282,
調布 (Chofu),2018-09-24,14:01～15:00,0.0295,0.0259,0.0280,
調布 (Chofu),2018-09-24,13:01～14:00,0.0294,0.0255,0.0278,
調布 (Chofu),2018-09-24,12:01～13:00,0.0300,0.0253,0.0278,
調布 (Chofu),2018-09-24,11:01～12:00,0.0301,0.0262,0.0282,
調布 (Chofu),2018-09-24,10:01～11:00,0.0295,0.0267,0.0282,
調布 (Chofu),2018-09-24,09:01～10:00,0.0304,0.0262,0.0283,
調布 (Chofu),2018-09-24,08:01～09:00,0.0309,0.0266,0.0286,
調布 (Chofu),2018-09-24,07:01～08:00,0.0302,0.0263,0.0284,
調布 (Chofu),2018-09-24,06:01～07:00,0.0307,0.0268,0.0287,
調布 (Chofu),2018-09-24,05:01～06:00,0.0304,0.0273,0.0285,
調布 (Chofu),2018-09-24,04:01～05:00,0.0302,0.0265,0.0283,
調布 (Chofu),2018-09-24,03:01～04:00,0.0303,0.0265,0.0283,
調布 (Chofu),2018-09-24,02:01～03:00,0.0297,0.0259,0.0281,
調布 (Chofu),2018-09-24,01:01～02:00,0.0301,0.0264,0.0280,
調布 (Chofu),2018-09-24,00:01～01:00,0.0296,0.0259,0.0279,
